Temperature
20 19 19 19 19 19 19 19 19 19 19 19 19 19 19 19 19 19 19 19 19 19 19 19 18 18 18 18 18 18 18 18 18 18 18 18 18 18 18 18 17 17 18
20 19 19 19 19 19 19 19 19 19 19 19 19 19 19 19 19 19 19 19 19 19 19 18 18 18 18 18 18 18 18 18 18 18 18 18 18 18 18 18 17 17 18
20 19 19 19 19 19 19 19 19 19 19 19 19 19 18 18 18 18 18 18 18 18 18 18 18 18 18 18 18 18 18 18 18 18 18 17 17 18 18 18 17 17 17
19 19 19 19 19 19 19 19 19 19 19 19 19 19 18 18 18 18 18 18 18 18 18 18 18 18 18 18 18 18 18 18 18 18 17 17 17 18 18 18 17 17 17
19 19 19 19 19 19 19 19 19 19 19 19 19 18 18 18 18 18 18 18 18 18 18 18 18 18 18 18 18 18 18 18 18 18 17 17 17 17 17 17 17 17 17
19 19 19 19 19 19 19 19 19 19 19 19 18 18 18 18 18 18 18 18 18 18 18 18 18 18 18 18 18 18 18 18 18 17 17 17 17 18 17 17 17 17 17
20 19 19 19 19 19 19 19 19 19 19 19 18 18 18 18 18 18 18 18 18 18 18 18 18 18 18 18 18 18 18 18 17 17 17 17 17 18 17 17 17 17 17
20 19 19 19 19 19 18 18 18 18 19 18 18 18 18 18 18 18 18 18 18 18 18 18 18 18 18 18 18 18 18 18 17 17 17 17 17 18 18 17 17 17 17
20 19 19 19 19 19 19 18 18 18 18 18 18 18 18 18 18 18 18 18 18 18 18 18 18 18 18 18 18 18 18 18 17 17 17 17 18 18 18 17 17 17 17
20 19 19 19 19 18 18 18 18 18 18 18 18 18 18 18 18 18 18 18 18 18 18 18 18 18 18 18 18 18 18 18 17 18 18 17 18 18 18 17 17 17 17
19 19 19 19 19 18 18 18 18 18 18 18 18 18 18 18 18 18 18 18 18 18 18 18 18 18 18 18 18 18 18 18 18 18 18 18 18 18 18 18 17 17 17
19 19 19 19 18 18 18 18 18 18 18 18 18 18 18 18 18 18 18 18 18 18 18 18 18 18 18 17 17 18 17 18 18 18 18 18 18 18 18 18 18 17 17
19 19 19 19 18 18 18 18 18 18 18 18 18 18 18 18 18 18 18 18 18 18 18 17 17 17 17 17 17 17 18 18 18 18 18 18 18 18 18 18 18 17 17
19 19 19 19 18 18 18 18 18 18 18 18 18 18 18 18 18 18 18 18 18 18 17 17 17 17 17 17 17 17 17 18 18 18 18 18 18 18 18 18 17 17 17
19 19 19 18 18 18 18 18 18 18 18 18 18 18 18 18 18 18 18 18 18 17 17 17 17 17 17 17 17 17 17 17 18 18 18 18 18 18 18 17 17 17 17
19 19 19 18 18 18 18 18 18 18 18 18 18 18 18 18 18 18 17 17 17 17 17 17 17 17 17 17 17 17 17 17 17 17 17 17 18 18 18 17 17 17 17
19 18 18 18 18 18 18 18 18 18 18 18 18 18 18 18 17 17 17 17 17 17 17 17 17 17 17 17 17 17 17 17 17 17 17 17 17 17 18 17 17 17 17
19 18 18 18 18 18 18 18 18 18 18 18 18 18 18 18 18 17 17 17 17 17 17 17 17 17 17 17 17 17 17 17 17 17 17 17 17 17 17 17 17 17 17
18 18 18 18 18 18 18 18 18 18 18 18 18 17 17 17 17 17 17 17 17 17 17 17 17 17 17 17 17 17 17 17 17 17 17 17 17 17 17 17 17 17 17
18 18 18 18 18 17 17 17 17 17 17 17 17 17 17 17 17 17 17 17 17 17 17 17 17 17 17 17 17 17 17 17 17 17 17 17 17 17 17 17 17 17 17
18 18 18 18 18 17 17 17 17 17 17 17 17 17 17 17 17 17 17 17 17 17 17 17 17 17 17 17 17 17 17 17 17 17 17 17 17 17 17 17 17 17 17
18 18 18 18 18 17 17 17 17 17 17 17 17 17 17 17 17 17 17 17 17 17 17 17 17 17 17 17 17 17 18 18 17 17 17 17 17 17 16 16 17 16 16
18 18 18 18 18 18 17 17 17 17 17 17 17 17 17 17 17 17 17 17 17 17 17 17 17 17 17 17 17 17 18 18 17 17 17 17 16 16 16 16 16 16 16
18 18 18 18 18 18 17 17 17 17 17 17 17 17 17 17 17 17 17 17 17 17 17 16 16 16 16 16 17 16 16 17 17 17 17 17 16 16 16 16 16 16 16
19 18 18 18 18 18 17 17 17 17 17 17 17 17 17 17 17 17 17 17 17 16 16 16 16 16 16 16 16 16 16 16 16 17 17 16 16 16 16 16 16 16 16
19 18 18 17 18 17 17 17 17 17 16 16 16 16 16 17 16 16 16 16 16 16 16 16 16 16 16 16 16 16 16 16 16 16 17 16 16 16 16 16 16 16 16
Wind_Speed
4 6 10 9 9 9 9 9 9 9 9 10 10 12 13 13 13 12 12 12 13 12 12 11 11 11 11 10 9 9 10 10 10 9 9 9 8 8 8 9 9 10 11
5 8 12 10 10 9 9 9 8 9 9 9 9 11 12 12 12 12 12 12 12 12 12 11 11 11 11 10 9 9 9 9 9 9 9 10 9 8 7 6 4 8 11
6 9 12 11 10 9 9 8 8 8 8 9 9 10 10 10 11 11 11 11 11 11 11 11 11 11 10 9 9 9 8 8 8 8 8 8 9 9 7 6 7 8 9
7 9 11 12 10 9 9 8 8 8 8 8 8 8 9 9 10 10 10 10 10 10 10 10 10 10 10 10 9 9 8 8 8 8 7 5 7 9 8 7 7 8 9
8 9 12 11 9 8 8 8 7 7 7 7 8 7 8 9 10 10 10 10 10 9 8 8 9 9 9 9 9 9 9 9 8 8 4 4 5 8 8 8 8 8 9
8 9 12 10 9 8 7 7 7 7 7 7 7 7 8 8 9 9 9 9 9 8 8 7 7 7 8 8 8 8 8 9 10 7 5 4 5 8 8 8 8 8 9
7 8 11 10 8 7 7 7 6 6 7 7 6 6 7 7 8 8 8 8 8 8 8 7 7 6 7 7 7 8 7 8 7 5 5 4 5 8 8 8 8 8 9
7 8 10 11 9 7 7 6 6 6 6 6 5 5 6 6 7 7 7 7 7 7 7 7 7 6 6 7 7 7 7 8 7 5 5 4 6 8 8 8 8 9 9
7 7 7 8 9 8 7 6 5 5 5 4 4 4 4 5 6 7 7 6 6 6 6 6 6 6 6 7 7 7 8 8 7 5 5 4 8 9 9 9 9 9 9
6 6 5 5 6 5 7 7 5 5 4 3 3 3 4 6 7 8 8 6 5 6 6 6 6 6 6 6 7 7 8 9 8 6 4 5 9 9 10 10 10 10 10
6 5 5 5 4 4 4 6 5 5 4 4 4 4 5 4 5 6 5 5 4 5 5 5 6 7 7 8 8 8 9 8 6 5 4 6 9 10 10 10 10 10 10
5 4 4 4 4 3 2 3 2 2 3 2 1 2 2 2 2 4 6 7 6 6 6 6 6 7 8 6 8 10 7 7 6 5 5 7 8 9 9 10 11 11 11
5 4 4 4 3 2 2 1 1 1 1 1 1 1 1 2 2 2 2 4 5 6 4 5 6 4 4 3 3 5 5 5 5 5 6 9 9 9 9 10 10 11 12
5 4 3 3 2 2 2 1 1 0 1 0 1 2 1 1 1 0 1 1 2 2 1 1 2 2 3 4 4 4 5 5 5 4 4 8 8 8 9 10 11 11 11
4 3 2 1 2 1 1 1 1 1 1 1 0 0 1 1 0 0 0 0 1 1 2 2 2 2 2 3 4 4 4 4 5 5 4 7 8 8 9 9 10 10 10
3 2 2 1 1 1 0 0 1 1 0 1 0 1 1 1 0 1 1 0 1 1 1 1 2 2 2 2 3 3 4 4 3 5 4 6 8 8 8 9 9 9 10
2 2 1 2 2 1 0 1 1 1 0 1 0 1 0 1 1 1 1 1 1 1 1 2 2 3 3 3 3 3 3 3 2 3 4 4 6 8 8 9 9 10 10
2 2 2 1 1 1 0 1 1 2 2 1 1 0 0 1 1 2 1 1 1 1 2 2 2 2 3 3 3 3 2 2 3 4 5 4 4 4 7 9 10 9 9
1 1 1 1 0 0 0 1 1 1 1 2 1 1 1 1 1 2 1 1 1 1 2 2 1 2 2 3 3 2 3 3 4 4 4 4 4 4 4 7 9 9 9
2 1 1 1 0 1 1 1 1 1 1 1 1 1 1 1 2 3 2 1 2 1 2 2 2 2 2 3 3 2 3 4 4 4 5 4 4 5 4 5 7 8 9
2 1 2 1 0 1 1 2 1 1 1 1 1 1 1 1 1 2 2 1 2 2 2 2 2 2 2 1 2 2 2 4 4 3 3 3 3 4 4 4 5 5 7
2 2 3 2 0 1 1 1 2 2 2 1 1 1 1 1 2 1 1 2 1 2 2 2 2 2 2 1 2 2 2 2 3 3 3 3 3 3 4 4 4 4 4
3 2 2 1 1 0 1 1 1 1 2 1 1 1 1 1 1 2 1 2 2 2 1 2 2 2 2 2 2 2 2 1 1 2 3 3 2 2 3 3 4 4 5
4 3 2 2 1 0 0 1 2 2 2 2 2 1 1 1 1 1 1 1 2 2 2 3 1 2 2 2 2 2 3 3 2 1 2 2 3 3 3 3 3 4 4
4 3 3 2 1 1 0 1 2 2 2 1 1 1 2 1 1 1 1 1 2 2 2 2 2 3 2 3 2 2 2 3 4 3 3 2 2 2 2 3 2 3 3
4 3 3 3 2 1 0 0 1 2 2 3 2 2 1 1 1 1 1 2 2 2 2 2 2 2 2 3 3 3 3 3 3 4 4 3 3 2 2 2 3 3 3
Wind_Direction
99 107 114 120 120 119 121 123 127 128 131 133 139 145 149 150 149 147 142 142 144 143 144 144 144 142 141 144 148 146 141 138 138 135 135 135 136 137 139 144 153 136 128
108 116 119 120 119 119 118 119 123 127 129 133 136 141 144 146 146 147 146 145 145 146 147 150 149 146 147 151 151 147 146 145 145 144 149 148 146 146 145 148 144 124 135
110 118 122 117 120 120 119 116 114 120 124 130 135 138 142 148 149 147 149 147 147 149 152 153 152 153 152 151 149 150 151 152 151 158 173 164 150 152 151 148 136 138 142
115 117 116 116 120 120 117 111 108 111 116 124 134 139 146 150 153 154 154 153 153 154 156 158 156 158 158 156 155 156 157 157 159 183 184 157 148 145 158 157 151 151 150
112 114 113 118 119 118 115 112 109 110 118 123 129 136 145 149 152 155 159 160 160 161 163 164 163 163 162 158 157 162 163 165 176 200 164 159 147 144 162 165 158 159 159
117 117 113 119 119 118 117 115 111 108 113 119 125 131 138 145 147 154 159 159 162 165 164 163 167 171 167 164 163 164 170 179 195 185 174 178 155 154 169 170 167 168 165
113 112 114 118 120 118 117 118 111 107 110 117 124 127 136 145 151 153 155 159 162 167 170 168 173 176 177 174 171 173 180 197 213 181 184 183 154 156 176 175 175 175 174
106 106 108 122 119 114 113 117 115 108 108 116 123 130 141 146 152 156 156 158 162 167 173 173 176 181 185 181 179 185 197 219 211 192 191 178 148 170 186 186 186 185 182
98 100 106 117 126 130 123 118 120 114 113 113 124 134 147 157 163 167 168 169 171 172 175 177 180 185 189 187 187 192 205 224 237 202 193 178 162 185 194 195 194 195 193
91 91 94 99 110 128 131 126 124 123 124 130 136 156 174 181 177 178 179 174 182 186 186 188 185 189 196 198 203 208 212 224 230 215 202 171 169 190 199 200 199 199 200
88 88 90 95 101 108 115 124 145 154 152 172 173 185 206 193 179 176 162 166 185 192 193 196 194 202 205 202 207 215 221 225 217 220 209 159 176 193 202 204 203 203 204
94 88 90 86 82 89 95 117 145 159 150 180 175 199 194 183 194 184 164 181 192 198 196 196 200 208 220 208 198 211 222 223 224 213 192 166 186 200 208 210 208 206 207
106 97 93 85 77 68 82 99 102 103 127 177 177 202 192 213 206 188 183 186 190 196 198 182 198 210 218 225 227 222 232 232 222 218 189 175 192 204 212 212 211 210 210
105 97 88 88 82 46 24 52 84 94 108 154 172 236 240 245 263 125 200 224 205 187 182 219 209 197 222 228 237 243 237 236 224 216 192 178 195 208 217 214 211 212 213
103 101 93 69 83 77 40 343 28 14 22 88 162 179 266 248 266 204 241 272 252 224 211 214 220 222 226 222 233 241 244 243 236 229 197 183 201 212 214 215 212 213 214
105 91 86 78 99 102 107 345 344 6 26 359 354 67 298 290 320 285 251 280 265 248 270 258 240 233 240 237 242 248 252 246 238 238 228 198 195 205 210 210 209 208 210
114 87 76 109 104 100 330 313 318 312 359 353 7 58 357 314 327 288 292 269 325 308 263 246 248 242 234 233 228 228 232 236 233 234 234 224 198 190 196 204 208 211 214
110 104 85 78 104 135 302 302 310 321 338 325 325 323 264 271 266 273 279 300 323 284 272 254 252 250 243 242 231 230 226 219 223 225 225 223 223 208 194 196 203 208 214
120 101 106 95 77 272 258 274 282 297 309 312 311 299 287 264 258 260 262 333 270 270 285 281 247 262 251 245 236 226 230 225 226 220 221 222 219 222 211 189 194 200 207
147 137 164 197 282 287 273 276 292 305 297 308 296 315 284 264 263 279 244 222 279 273 278 286 263 251 253 253 256 236 236 234 230 221 224 215 214 218 221 211 202 194 194
170 174 180 230 292 285 294 300 297 292 301 324 324 356 304 286 273 270 290 250 268 268 271 263 254 232 235 237 257 254 233 227 217 216 220 221 211 213 216 217 214 208 193
175 183 177 183 214 282 327 315 312 309 300 323 345 6 322 299 289 253 280 275 277 273 260 264 246 259 235 210 249 264 239 221 212 208 204 207 214 207 209 208 207 207 213
177 174 164 147 134 355 328 291 306 275 284 314 326 330 352 328 292 320 306 299 292 284 281 273 257 248 257 235 261 288 281 272 274 205 213 211 216 224 224 210 205 199 206
180 167 153 148 139 122 243 299 295 303 313 322 317 342 338 336 312 293 288 290 288 289 289 275 279 271 266 257 249 264 300 312 270 249 219 200 204 218 229 234 219 206 210
170 164 154 152 148 161 209 237 275 302 311 323 331 360 326 337 309 312 293 289 282 285 297 307 312 286 273 274 269 281 280 275 269 267 265 255 238 229 220 224 226 220 217
166 162 156 151 153 167 203 309 300 311 326 338 335 333 307 324 329 0 331 320 296 298 286 287 295 280 291 297 288 285 281 285 286 275 269 263 263 256 230 218 225 221 216
Height
1518 1517 1516 1516 1516 1516 1517 1518 1519 1520 1520 1521 1523 1524 1525 1527 1528 1530 1531 1533 1534 1536 1537 1538 1540 1541 1542 1543 1544 1545 1546 1546 1547 1548 1549 1549 1550 1550 1550 1551 1551 1552 1552
1519 1518 1517 1517 1518 1518 1519 1520 1520 1521 1521 1522 1524 1525 1526 1528 1529 1531 1532 1534 1535 1536 1538 1539 1541 1542 1543 1544 1545 1545 1546 1547 1548 1548 1549 1550 1550 1551 1551 1551 1552 1553 1553
1520 1519 1519 1519 1520 1520 1521 1521 1522 1522 1523 1524 1525 1526 1527 1528 1529 1531 1533 1534 1536 1537 1538 1539 1541 1542 1543 1544 1545 1546 1547 1548 1548 1549 1550 1551 1551 1551 1551 1552 1552 1553 1553
1521 1522 1521 1521 1521 1522 1522 1523 1523 1524 1524 1525 1526 1526 1527 1528 1529 1531 1533 1535 1536 1537 1539 1540 1541 1542 1543 1544 1545 1546 1547 1548 1549 1549 1551 1552 1552 1551 1551 1552 1552 1553 1554
1523 1524 1523 1523 1523 1523 1524 1524 1525 1525 1525 1526 1526 1527 1527 1528 1529 1531 1533 1535 1536 1538 1539 1540 1541 1542 1544 1545 1545 1546 1547 1548 1549 1550 1552 1552 1552 1552 1552 1552 1553 1553 1554
1525 1526 1525 1524 1525 1525 1525 1526 1526 1526 1526 1527 1527 1528 1528 1529 1530 1532 1534 1535 1536 1538 1539 1540 1541 1542 1544 1545 1546 1547 1547 1548 1549 1551 1551 1552 1552 1551 1551 1552 1552 1553 1554
1527 1527 1527 1526 1526 1526 1527 1527 1527 1527 1528 1528 1528 1529 1529 1530 1531 1532 1534 1535 1536 1537 1539 1540 1541 1542 1543 1544 1545 1546 1547 1548 1550 1551 1551 1551 1551 1551 1551 1551 1552 1553 1553
1528 1529 1528 1527 1527 1528 1528 1528 1529 1528 1529 1529 1530 1530 1531 1531 1532 1533 1534 1535 1536 1537 1538 1539 1540 1542 1543 1544 1545 1546 1547 1548 1550 1550 1550 1550 1550 1550 1550 1551 1551 1552 1553
1530 1531 1531 1531 1530 1529 1529 1529 1529 1529 1530 1530 1531 1531 1531 1532 1533 1534 1535 1536 1537 1537 1538 1539 1540 1541 1542 1543 1544 1545 1546 1547 1549 1550 1550 1549 1549 1549 1549 1550 1551 1551 1552
1532 1532 1532 1532 1532 1532 1532 1531 1530 1530 1530 1531 1531 1531 1532 1532 1533 1534 1535 1535 1536 1537 1538 1539 1539 1540 1541 1542 1543 1544 1545 1546 1547 1549 1549 1548 1548 1548 1548 1549 1550 1551 1551
1533 1533 1533 1533 1534 1534 1534 1532 1532 1531 1531 1531 1532 1532 1532 1533 1534 1535 1535 1535 1536 1536 1537 1538 1539 1540 1541 1541 1542 1543 1543 1545 1546 1547 1547 1547 1546 1547 1547 1548 1549 1549 1550
1533 1534 1534 1534 1534 1534 1534 1533 1533 1533 1532 1532 1532 1532 1533 1533 1534 1534 1534 1535 1535 1535 1536 1537 1538 1539 1540 1541 1541 1542 1543 1544 1544 1545 1545 1544 1545 1545 1546 1546 1547 1548 1549
1535 1535 1535 1535 1534 1535 1535 1534 1534 1533 1533 1533 1532 1532 1532 1533 1534 1534 1535 1535 1535 1535 1536 1536 1537 1538 1539 1540 1541 1541 1541 1542 1542 1543 1543 1542 1543 1543 1544 1544 1545 1546 1547
1536 1536 1536 1536 1535 1535 1535 1535 1534 1534 1533 1533 1532 1532 1532 1533 1533 1534 1534 1534 1534 1535 1535 1535 1536 1537 1537 1538 1538 1539 1539 1539 1540 1540 1540 1540 1540 1541 1542 1542 1543 1544 1545
1537 1537 1537 1536 1536 1535 1535 1535 1535 1534 1534 1533 1532 1532 1532 1533 1533 1533 1533 1533 1534 1534 1534 1534 1535 1535 1536 1536 1536 1536 1537 1537 1537 1538 1537 1537 1538 1539 1539 1540 1541 1542 1543
1537 1537 1537 1536 1536 1535 1535 1535 1534 1534 1533 1534 1533 1532 1532 1533 1533 1533 1533 1532 1533 1533 1533 1533 1534 1534 1534 1534 1534 1534 1534 1534 1534 1534 1535 1535 1535 1536 1537 1538 1538 1539 1540
1538 1537 1537 1537 1536 1535 1535 1535 1535 1535 1534 1534 1533 1533 1532 1532 1532 1532 1533 1532 1532 1532 1532 1533 1533 1533 1533 1533 1532 1532 1532 1532 1532 1531 1532 1533 1533 1533 1534 1535 1536 1536 1537
1538 1537 1537 1537 1536 1536 1535 1534 1535 1534 1534 1533 1533 1533 1532 1532 1532 1532 1532 1532 1531 1532 1532 1532 1531 1531 1531 1531 1531 1530 1530 1529 1529 1529 1530 1530 1531 1532 1532 1532 1533 1534 1535
1537 1537 1537 1536 1536 1536 1535 1534 1534 1533 1533 1532 1532 1532 1532 1532 1532 1532 1532 1531 1531 1531 1531 1531 1530 1529 1529 1529 1529 1528 1528 1527 1527 1527 1527 1527 1528 1529 1529 1529 1530 1531 1532
1536 1536 1535 1536 1535 1535 1535 1534 1534 1533 1533 1532 1531 1531 1531 1531 1531 1531 1532 1530 1530 1530 1529 1529 1528 1528 1527 1527 1527 1526 1525 1525 1525 1524 1525 1525 1525 1526 1527 1527 1528 1529 1529
1534 1534 1534 1535 1534 1534 1534 1534 1533 1533 1532 1531 1531 1530 1530 1530 1530 1530 1530 1529 1529 1528 1527 1527 1526 1526 1526 1525 1525 1524 1523 1523 1522 1522 1522 1523 1523 1524 1524 1525 1526 1527 1527
1533 1532 1532 1533 1534 1533 1533 1533 1532 1532 1531 1531 1530 1529 1529 1529 1529 1529 1528 1528 1528 1527 1526 1526 1525 1525 1525 1524 1524 1523 1522 1522 1521 1521 1521 1521 1521 1522 1522 1523 1523 1524 1525
1532 1532 1532 1532 1532 1533 1533 1533 1532 1531 1530 1530 1529 1528 1528 1527 1527 1527 1527 1527 1526 1526 1526 1525 1524 1524 1524 1523 1523 1523 1522 1520 1519 1519 1519 1519 1519 1519 1520 1521 1521 1522 1523
1532 1532 1532 1532 1532 1531 1532 1532 1531 1531 1530 1529 1528 1528 1527 1526 1526 1526 1526 1525 1525 1525 1524 1524 1524 1523 1522 1522 1521 1520 1521 1520 1519 1518 1518 1517 1517 1517 1517 1518 1519 1520 1520
1532 1532 1532 1531 1531 1531 1531 1530 1530 1530 1529 1529 1528 1527 1526 1526 1525 1525 1525 1525 1524 1524 1523 1523 1522 1521 1521 1521 1520 1520 1519 1518 1518 1517 1516 1516 1515 1515 1515 1515 1516 1517 1518
1531 1531 1531 1531 1530 1530 1530 1529 1529 1528 1528 1527 1527 1526 1526 1526 1525 1524 1524 1523 1523 1523 1522 1521 1521 1520 1520 1519 1518 1518 1518 1518 1517 1516 1514 1513 1513 1513 1513 1513 1514 1515 1516